Time,TemperatureF,DewpointF,PressureIn,WindDirection,WindDirectionDegrees,WindSpeedMPH,WindSpeedGustMPH,Humidity,HourlyPrecipIn,Conditions,Clouds,dailyrainin,SoftwareType,DateUTC
2013-09-09 01:30:00,70.0,-99.9,-100.00,North,-999,-999.0,-999.0,-999,0.01,,,0.58,,2013-09-09 07:30:00,
2013-09-09 02:12:00,70.0,-99.9,-100.00,North,-999,-999.0,-999.0,-999,0.01,,,0.58,,2013-09-09 08:12:00,
2013-09-09 02:22:00,70.0,-99.9,-100.00,North,-999,-999.0,-999.0,-999,0.01,,,0.58,,2013-09-09 08:22:00,
2013-09-09 02:30:00,71.0,-99.9,-100.00,North,-999,-999.0,-999.0,-999,0.01,,,0.59,,2013-09-09 08:30:00,
2013-09-09 03:12:00,71.0,-99.9,-100.00,North,-999,-999.0,-999.0,-999,0.01,,,0.59,,2013-09-09 09:12:00,
2013-09-09 03:22:00,71.0,-99.9,-100.00,North,-999,-999.0,-999.0,-999,0.01,,,0.59,,2013-09-09 09:22:00,
2013-09-09 03:30:00,70.0,-99.9,-100.00,North,-999,-999.0,-999.0,-999,-99.99,,,0.60,,2013-09-09 09:30:00,
2013-09-09 04:13:00,70.0,-99.9,-100.00,North,-999,-999.0,-999.0,-999,-99.99,,,0.60,,2013-09-09 10:13:00,
2013-09-09 04:23:00,70.0,-99.9,-100.00,North,-999,-999.0,-999.0,-999,-99.99,,,0.60,,2013-09-09 10:23:00,
2013-09-09 04:30:00,68.0,-99.9,-100.00,North,-999,-999.0,-999.0,-999,0.06,,,0.59,,2013-09-09 10:30:00,
2013-09-09 05:12:00,68.0,-99.9,-100.00,North,-999,-999.0,-999.0,-999,0.06,,,0.59,,2013-09-09 11:12:00,
2013-09-09 05:22:00,68.0,-99.9,-100.00,North,-999,-999.0,-999.0,-999,0.06,,,0.59,,2013-09-09 11:22:00,
2013-09-09 05:30:00,68.0,-99.9,-100.00,North,-999,-999.0,-999.0,-999,0.04,,,0.45,,2013-09-09 11:30:00,
2013-09-09 06:12:00,68.0,-99.9,-100.00,North,-999,-999.0,-999.0,-999,0.04,,,0.45,,2013-09-09 12:12:00,
2013-09-09 06:22:00,68.0,-99.9,-100.00,North,-999,-999.0,-999.0,-999,0.04,,,0.45,,2013-09-09 12:22:00,
2013-09-09 06:30:00,68.0,-99.9,-100.00,North,-999,-999.0,-999.0,-999,0.00,,,0.34,,2013-09-09 12:30:00,
2013-09-09 07:22:00,68.0,-99.9,-100.00,North,-999,-999.0,-999.0,-999,0.00,,,0.34,,2013-09-09 13:22:00,
2013-09-09 10:30:00,73.0,-99.9,-100.00,North,-999,-999.0,-999.0,-999,0.00,,,0.31,,2013-09-09 16:30:00,
2013-09-09 11:13:00,73.0,-99.9,-100.00,North,-999,-999.0,-999.0,-999,0.00,,,0.31,,2013-09-09 17:13:00,
2013-09-09 11:23:00,73.0,-99.9,-100.00,North,-999,-999.0,-999.0,-999,0.00,,,0.31,,2013-09-09 17:23:00,
2013-09-09 12:30:00,77.0,-99.9,-100.00,North,-999,-999.0,-999.0,-999,0.00,,,0.31,,2013-09-09 18:30:00,
2013-09-09 13:12:00,77.0,-99.9,-100.00,North,-999,-999.0,-999.0,-999,0.00,,,0.31,,2013-09-09 19:12:00,
2013-09-09 13:23:00,77.0,-99.9,-100.00,North,-999,-999.0,-999.0,-999,0.00,,,0.31,,2013-09-09 19:23:00,
2013-09-09 13:30:00,78.0,-99.9,-100.00,North,-999,-999.0,-999.0,-999,0.00,,,0.31,,2013-09-09 19:30:00,
2013-09-09 14:12:00,78.0,-99.9,-100.00,North,-999,-999.0,-999.0,-999,0.00,,,0.31,,2013-09-09 20:12:00,
2013-09-09 14:22:00,78.0,-99.9,-100.00,North,-999,-999.0,-999.0,-999,0.00,,,0.31,,2013-09-09 20:22:00,
2013-09-09 15:30:00,80.0,-99.9,-100.00,North,-999,-999.0,-999.0,-999,0.00,,,0.31,,2013-09-09 21:30:00,
2013-09-09 16:14:00,80.0,-99.9,-100.00,North,-999,-999.0,-999.0,-999,0.00,,,0.31,,2013-09-09 22:14:00,
2013-09-09 16:25:00,80.0,-99.9,-100.00,North,-999,-999.0,-999.0,-999,0.00,,,0.31,,2013-09-09 22:25:00,
2013-09-09 17:30:00,80.0,-99.9,-100.00,North,-999,-999.0,-999.0,-999,0.00,,,0.31,,2013-09-09 23:30:00,
2013-09-09 18:12:00,80.0,-99.9,-100.00,North,-999,-999.0,-999.0,-999,0.00,,,0.31,,2013-09-10 00:12:00,
2013-09-09 18:22:00,80.0,-99.9,-100.00,North,-999,-999.0,-999.0,-999,0.00,,,0.31,,2013-09-10 00:22:00,